Regional Weather Roundup
Issued by NWS

Current Version | Previous Version | Text Only | Print | Product List | Glossary On
Versions: 1 2 3 4 5 6 7 8 9 10 11 12 13 14 15 16 17 18 19 20 21 22 23 24 25 26 27 28 29 30 31 32 33 34 35 36 37 38 39 40 41 42 43 44 45 46 47 48 49 50
000
ASUS44 KLIX 200306
RWRLA
LOUISIANA WEATHER ROUNDUP
NATIONAL WEATHER SERVICE NEW ORLEANS LA
1000 PM CDT THU APR 19 2018

NOTE: "FAIR" INDICATES FEW OR NO CLOUDS BELOW 12,000 FEET WITH NO
      SIGNIFICANT WEATHER AND/OR OBSTRUCTIONS TO VISIBILITY.
      SKY/WX - SKY CONDITION AND SIGNIFICANT WEATHER.
      TMP - AIR TEMPERATURE.    DP   - DEWPOINT TEMPERATURE.
      RH  - RELATIVE HUMIDITY.  PRES - PRESSURE.
      HX  - HEAT INDEX.         WCI  - WIND CHILL INDEX.

*  THESE STATIONS ARE NOT NWS OR FAA STATIONS AND ARE NOT UNDER
   NWS QUALITY CONTROL.

LAZ040-048-061>063-065-066-069-200400-
SOUTHEAST LOUISIANA

CITY           SKY/WX    TMP DP  RH WIND       PRES   REMARKS
N.O. INTL ARPT FAIR      65  46  50 N15G22    30.20R
N.O. LAKEFRONT FAIR      65  48  54 N25       30.21R
N.O. DOWNTOWN* FAIR      66  44  45 N13G21    30.21R
RESERVE*       FAIR      61  44  53 N9        30.22R
SLIDELL        FAIR      59  44  57 N6        30.21R
BATON ROUGE    FAIR      57  40  52 N7        30.23S
BOOTHVILLE     FAIR      67  54  63 N12       30.17R
BELLE CHASSE   FAIR      64  47  53 N10G18    30.19R
BOGALUSA*      FAIR      58  42  54 N8        30.23R
GALLIANO*      FAIR      64  49  59 N8        30.18R
NEW ROADS*     FAIR      56  40  55 N10       30.25S
GONZALES*      FAIR      59  42  52 N7        30.22R
HAMMOND*       FAIR      57  41  54 N8        30.23S
HOUMA*         FAIR      64  47  55 N10       30.19R
PORT FOURCHON* CLEAR     70  48  46 N14       30.18R

$$

LAZ041-044-053-054-200400-
SOUTHWEST LOUISIANA

CITY           SKY/WX    TMP DP  RH WIND       PRES   REMARKS
LAKE CHARLES   FAIR      60  47  61 NE7       30.22R
LAFAYETTE      FAIR      59  44  57 NE8       30.22S
PATTERSON      FAIR      62  46  55 N9        30.21R
SALT POINT       N/A    N/A N/A N/A VRB6      30.19R
NEW IBERIA     FAIR      61  43  51 NE14      30.22S
CHENAULT AIRPK CLEAR     61  48  63 NE6       30.23R

$$

LAZ027-028-200400-
CENTRAL LOUISIANA

CITY           SKY/WX    TMP DP  RH WIND       PRES   REMARKS
FORT POLK      FAIR      59  44  57 NE7       30.24R
ALEXANDRIA INT FAIR      57  40  52 NE12      30.25R
ALEXANDRIA     FAIR      57  38  48 VRB7      30.27R

$$

LAZ001-002-200400-
NORTHWEST LOUISIANA

CITY           SKY/WX    TMP DP  RH WIND       PRES   REMARKS
SHREVEPORT     FAIR      58  41  53 E8        30.27R
BARKSDALE AFB  FAIR      54  42  64 NE3       30.27R
DTN SHREVEPORT FAIR      57  42  57 NE5       30.28R

$$

LAZ014-016-200400-
NORTHEAST LOUISIANA

CITY           SKY/WX    TMP DP  RH WIND       PRES   REMARKS
MONROE         FAIR      53  36  52 NE12      30.32R
TALLULAH       FAIR      54  38  54 N8        30.30R

$$




USA.gov is the U.S. government's official web portal to all federal, state and local government web resources and services.